Flag for Russia Weather past 2 weeks in Samara, Russia

Now
59 °F

Passing clouds.


Feels Like: 60 °F
Forecast: 37 / 63 °F
Wind: 3 mph from Northeast

Location: Samara


UV Index: 3 (Moderate)

Visibility: N/A


Pressure: 30.27 "Hg

Humidity: 23%

Dew point: 21 °F

Location of SamaraLocation

Historic Weather in Samara

°F

Samara temperature yesterday

Maximum temperature yesterday: 52 °F (at 2:30 PM)
Minimum temperature yesterday: 39 °F (at 6:30 AM)
Average temperature yesterday: 46 °F

Past Weeks' High & Low Weather Summary

 TemperatureHumidityPressure
High61 °F (Apr 17, 3:30 PM)100% (Apr 6, 1:30 AM)30.60 "Hg (Apr 6, 1:30 AM)
Low21 °F (Apr 11, 5:00 AM)19% (Apr 12, 3:30 PM)29.62 "Hg (Apr 5, 2:30 PM)
Average39 °F54%30.10 "Hg
* Reported Apr 4 4:00 PM — Apr 19 4:00 PM, Samara, Weather by CustomWeather, © 2014

Note: Actual official high and low records may vary slightly from our data, if they occured in-between our weather recording intervals... More about our weather records

Advertising

Historic Weather Conditions — Data for Previous 24 hours

 ConditionsComfort  
Time TempWeatherWind HumidityBarometerVisibility
4:00 PM
Apr 19
59 °FSunny.1 mph23%30.30 "Hg10 mi
3:30 PM57 °FSunny.3 mph27%30.30 "Hg10 mi
3:00 PM59 °FSunny.8 mph25%30.30 "Hg10 mi
2:30 PM57 °FPassing clouds.3 mph27%30.30 "HgN/A
2:00 PM57 °FSunny.3 mph27%30.33 "Hg10 mi
1:30 PM55 °FSunny.3 mph28%30.33 "Hg10 mi
1:00 PM55 °FPassing clouds.6 mph31%30.33 "HgN/A
12:30 PM54 °FPassing clouds.3 mph33%30.33 "HgN/A
12:00 PM54 °FPassing clouds.3 mph30%30.33 "HgN/A
11:30 AM52 °FPassing clouds.3 mph30%30.33 "HgN/A
11:00 AM52 °FSunny.1 mph32%30.33 "Hg10 mi
10:30 AM50 °FSunny.3 mph37%30.33 "Hg10 mi
10:00 AM48 °FPassing clouds.3 mph43%30.33 "HgN/A
9:30 AM46 °FSunny.1 mph46%30.33 "Hg10 mi
9:00 AM45 °FSunny.1 mph49%30.33 "Hg10 mi
8:30 AM43 °FPassing clouds.3 mph57%30.33 "HgN/A
8:00 AM41 °FSunny.1 mph61%30.33 "Hg10 mi
7:30 AM39 °FSunny.No wind61%30.33 "Hg10 mi
7:00 AM36 °FSunny.1 mph65%30.33 "Hg10 mi
6:30 AM36 °FClear.3 mph65%30.33 "Hg10 mi
6:00 AM34 °FClear.1 mph70%30.33 "Hg10 mi
5:30 AM36 °FClear.1 mph60%30.30 "Hg10 mi
5:00 AM34 °FClear.3 mph65%30.30 "Hg10 mi
4:30 AM34 °FClear.3 mph65%30.30 "Hg10 mi
4:00 AM34 °FClear.1 mph65%30.30 "Hg10 mi
3:30 AM37 °FClear.1 mph56%30.30 "Hg10 mi
3:00 AM36 °FClear.3 mph60%30.30 "Hg10 mi
2:30 AM37 °FClear.3 mph56%30.30 "Hg10 mi
2:00 AM36 °FClear.3 mph60%30.30 "Hg10 mi
1:30 AM37 °FClear.3 mph56%30.30 "Hg10 mi
1:00 AM37 °FClear.1 mph56%30.30 "Hg10 mi
12:30 AM37 °FClear.1 mph60%30.30 "Hg10 mi
12:00 AM41 °FClear.1 mph49%30.30 "Hg10 mi
11:30 PM
Apr 18
39 °FClear.3 mph52%30.27 "Hg10 mi
11:00 PM41 °FClear.3 mph49%30.27 "Hg10 mi
10:30 PM43 °FClear.6 mph46%30.27 "Hg10 mi
10:00 PM43 °FClear.3 mph46%30.27 "Hg10 mi
9:30 PM43 °FClear.6 mph46%30.27 "Hg10 mi
9:00 PM45 °FClear.6 mph42%30.27 "Hg10 mi
8:30 PM46 °FSunny.6 mph40%30.27 "Hg10 mi
8:00 PM46 °FSunny.6 mph40%30.27 "Hg10 mi
7:30 PM48 °FSunny.6 mph34%30.27 "Hg10 mi
7:00 PM50 °FSunny.8 mph30%30.27 "Hg10 mi
6:30 PM50 °FSunny.8 mph30%30.27 "Hg10 mi
6:00 PM52 °FSunny.8 mph26%30.27 "Hg10 mi
5:30 PM52 °FSunny.10 mph26%30.27 "Hg10 mi
5:00 PM52 °FSunny.8 mph26%30.24 "Hg10 mi
Weather by CustomWeather, © 2014

See weather overview